K5KVN-2 Weather Reports


Display with metric or nautical units.
time (UTC)temp
F
wind
direction
speed
MPH
gust
MPH
rain 1hr
in
rain 24hr
in
rain mn
in
humidity
%
barometer
mb
20260904053735 79 123 1.0 3.0 0.00 0.00 0.00 70 1015.2
20260904052735 79 108 0.0 1.0 0.00 0.00 0.00 70 1015.2
20260904051732 79 108 0.0 0.0 0.00 0.00 0.00 69 1015.2
20260904050732 80 108 0.0 0.0 0.00 0.00 0.00 68 1015.1
20260904045730 81 108 0.0 0.0 0.00 0.00 0.00 67 1015.2
20260904044726 81 108 0.0 0.0 0.00 0.00 0.00 64 1015.3
20260904044202 82 108 0.0 1.0 0.00 0.00 0.00 63 1015.2
20260904042723 82 108 0.0 3.0 0.00 0.00 0.00 62 1015.2
20260904040723 83 107 1.0 3.0 0.00 0.00 0.00 62 1015.1
20260904035723 82 92 0.0 3.0 0.00 0.00 0.00 63 1014.9
20260904034716 83 113 1.0 2.0 0.00 0.00 0.00 61 1014.8
20260904033715 84 123 1.0 2.0 0.00 0.00 0.00 59 1014.9
20260904033155 85 121 2.0 3.0 0.00 0.00 0.00 56 1015.1
20260904031712 86 128 2.0 3.0 0.00 0.00 0.00 56 1015.0
20260904030710 86 134 3.0 4.0 0.00 0.00 0.00 55 1014.9
20260904025712 87 137 3.0 5.0 0.00 0.00 0.00 54 1014.9
20260904024711 87 138 3.0 4.0 0.00 0.00 0.00 54 1014.8
20260904023711 87 134 3.0 6.0 0.00 0.00 0.00 53 1014.7
20260904022712 87 136 3.0 4.0 0.00 0.00 0.00 53 1014.5
20260904021705 88 142 3.0 5.0 0.00 0.00 0.00 52 1014.5
20260904020705 88 152 3.0 6.0 0.00 0.00 0.00 52 1014.2
20260904015704 88 142 3.0 4.0 0.00 0.00 0.00 51 1014.2
20260904014704 89 136 3.0 4.0 0.00 0.00 0.00 50 1014.0
20260904014153 89 136 2.0 4.0 0.00 0.00 0.00 50 1013.9
20260904012704 89 158 3.0 5.0 0.00 0.00 0.00 49 1013.6
20260904011706 90 158 3.0 5.0 0.00 0.00 0.00 48 1013.5
20260904010705 90 137 3.0 7.0 0.00 0.00 0.00 47 1013.4
20260904005705 91 123 4.0 6.0 0.00 0.00 0.00 47 1013.4
20260904004703 91 128 4.0 7.0 0.00 0.00 0.00 46 1013.4
20260904004140 92 138 5.0 8.0 0.00 0.00 0.00 46 1013.4
20260904002701 92 129 5.0 9.0 0.00 0.00 0.00 45 1013.3
20260904002137 93 155 7.0 12.0 0.00 0.00 0.00 44 1013.4
20260904000703 93 166 8.0 12.0 0.00 0.00 0.00 44 1013.4
20260903235703 94 176 6.0 9.0 0.00 0.00 0.00 44 1013.4
20260903234702 94 142 7.0 11.0 0.00 0.00 0.00 43 1013.3
20260903233703 94 130 7.0 15.0 0.00 0.00 0.00 42 1013.3
20260903232704 95 152 8.0 16.0 0.00 0.00 0.00 42 1013.2
20260903231701 94 189 9.0 16.0 0.00 0.00 0.00 41 1013.1
20260903230702 95 166 8.0 15.0 0.00 0.00 0.00 42 1013.1
20260903230142 95 155 9.0 16.0 0.00 0.00 0.00 41 1013.2
20260903224702 95 184 8.0 13.0 0.00 0.00 0.00 41 1013.3
20260903223703 96 157 7.0 14.0 0.00 0.00 0.00 40 1013.1
20260903222701 96 168 10.0 19.0 0.00 0.00 0.00 41 1013.2
20260903221703 96 161 7.0 10.0 0.00 0.00 0.00 40 1013.2
20260903220703 97 161 7.0 15.0 0.00 0.00 0.00 40 1013.3
20260903215702 97 153 9.0 20.0 0.00 0.00 0.00 40 1013.4
20260903214701 96 168 9.0 14.0 0.00 0.00 0.00 41 1013.3
20260903214142 96 174 9.0 18.0 0.00 0.00 0.00 42 1013.6
20260903212701 97 171 9.0 15.0 0.00 0.00 0.00 41 1013.7
20260903211702 97 187 9.0 14.0 0.00 0.00 0.00 41 1013.7
20260903211134 96 161 8.0 17.0 0.00 0.00 0.00 41 1013.9
20260903205658 96 171 9.0 17.0 0.00 0.00 0.00 42 1013.8
20260903204657 96 173 9.0 17.0 0.00 0.00 0.00 43 1014.0
20260903203658 95 175 7.0 15.0 0.00 0.00 0.00 43 1014.0
20260903202659 96 153 8.0 18.0 0.00 0.00 0.00 43 1014.1
20260903201657 97 182 7.0 18.0 0.00 0.00 0.00 41 1014.1
20260903200659 97 182 7.0 12.0 0.00 0.00 0.00 40 1014.2
20260903195700 96 144 8.0 14.0 0.00 0.00 0.00 42 1014.2
20260903194657 97 123 9.0 17.0 0.00 0.00 0.00 41 1014.3
20260903193658 97 129 7.0 13.0 0.00 0.00 0.00 41 1014.3
20260903192659 96 190 9.0 20.0 0.00 0.00 0.00 43 1014.4
20260903191659 97 167 9.0 20.0 0.00 0.00 0.00 41 1014.5
20260903190659 96 164 9.0 20.0 0.00 0.00 0.00 42 1014.5
20260903185658 96 196 9.0 16.0 0.00 0.00 0.00 42 1014.6
20260903184655 96 175 9.0 18.0 0.00 0.00 0.00 42 1014.9
20260903183657 96 155 11.0 20.0 0.00 0.00 0.00 41 1014.9
20260903182654 96 165 11.0 22.0 0.00 0.00 0.00 42 1015.1
20260903181655 95 163 11.0 18.0 0.00 0.00 0.00 43 1015.1
20260903180651 95 163 10.0 22.0 0.00 0.00 0.00 43 1015.2
20260903175651 94 182 10.0 17.0 0.00 0.00 0.00 43 1015.6
20260903174648 94 171 6.0 14.0 0.00 0.00 0.00 45 1015.6
20260903173645 94 176 9.0 18.0 0.00 0.00 0.00 46 1015.9
20260903172645 94 194 9.0 16.0 0.00 0.00 0.00 46 1016.0
20260903172126 93 186 9.0 16.0 0.00 0.00 0.00 47 1016.2
20260903170644 92 175 9.0 17.0 0.00 0.00 0.00 48 1016.3
20260903165637 92 146 9.0 14.0 0.00 0.00 0.00 49 1016.4
20260903164637 92 177 9.0 17.0 0.00 0.00 0.00 49 1016.5
20260903162638 91 200 9.0 18.0 0.00 0.00 0.00 51 1016.5
20260903161637 91 205 11.0 18.0 0.00 0.00 0.00 51 1016.6
20260903160637 90 179 10.0 20.0 0.00 0.00 0.00 51 1016.6
20260903155639 89 163 11.0 17.0 0.00 0.00 0.00 52 1016.7
20260903154637 89 183 9.0 16.0 0.00 0.00 0.00 53 1016.7
20260903153638 89 174 8.0 14.0 0.00 0.00 0.00 54 1016.8
20260903152632 88 167 8.0 17.0 0.00 0.00 0.00 55 1016.8
20260903151633 87 178 7.0 14.0 0.00 0.00 0.00 56 1017.0
20260903145631 86 165 6.0 15.0 0.00 0.00 0.00 59 1017.0
20260903144630 85 156 6.0 13.0 0.00 0.00 0.00 61 1017.0
20260903143630 84 157 6.0 10.0 0.00 0.00 0.00 63 1017.0
20260903142630 83 158 8.0 11.0 0.00 0.00 0.00 64 1017.2
20260903142117 83 140 8.0 14.0 0.00 0.00 0.00 65 1017.2
20260903140630 82 153 7.0 14.0 0.00 0.00 0.00 67 1017.3
20260903135629 82 153 6.0 11.0 0.00 0.00 0.00 68 1017.4
20260903134629 81 180 6.0 11.0 0.00 0.00 0.00 69 1017.5
20260903134112 80 165 5.0 10.0 0.00 0.00 0.00 72 1017.5
20260903132630 79 168 4.0 6.0 0.00 0.00 0.00 73 1017.5
20260903132109 79 148 3.0 4.0 0.00 0.00 0.00 75 1017.3
20260903130629 78 172 3.0 5.0 0.00 0.00 0.00 75 1017.3
20260903125630 77 157 2.0 4.0 0.00 0.00 0.00 78 1017.4
20260903124632 76 147 2.0 4.0 0.00 0.00 0.00 81 1017.3
20260903124110 74 126 0.0 3.0 0.00 0.00 0.00 83 1017.3
20260903122630 74 132 0.0 0.0 0.00 0.00 0.00 83 1017.2
20260903121628 74 132 0.0 0.0 0.00 0.00 0.00 84 1017.0
20260903120626 73 132 0.0 0.0 0.00 0.00 0.00 84 1016.9
20260903115625 73 132 0.0 0.0 0.00 0.00 0.00 85 1016.8
20260903114625 73 132 0.0 0.0 0.00 0.00 0.00 84 1016.9
20260903113625 74 132 0.0 0.0 0.00 0.00 0.00 83 1016.8
20260903112626 74 132 0.0 0.0 0.00 0.00 0.00 82 1016.6
20260903111627 74 132 0.0 0.0 0.00 0.00 0.00 82 1016.6
20260903105626 76 132 0.0 0.0 0.00 0.00 0.00 80 1016.6
20260903104623 76 132 0.0 0.0 0.00 0.00 0.00 79 1016.5
20260903103624 75 132 0.0 0.0 0.00 0.00 0.00 80 1016.4
20260903102617 75 132 0.0 2.0 0.00 0.00 0.00 80 1016.4
20260903101617 76 136 1.0 4.0 0.00 0.00 0.00 80 1016.5
20260903100618 76 131 2.0 4.0 0.00 0.00 0.00 80 1016.4
20260903095617 75 117 2.0 6.0 0.00 0.00 0.00 80 1016.4
20260903094617 76 128 2.0 3.0 0.00 0.00 0.00 80 1016.4
20260903093618 77 119 0.0 4.0 0.00 0.00 0.00 77 1016.4
20260903093056 78 124 0.0 0.0 0.00 0.00 0.00 75 1016.4
20260903091618 78 165 0.0 0.0 0.00 0.00 0.00 75 1016.5
20260903090618 78 155 0.0 0.0 0.00 0.00 0.00 74 1016.3
20260903085614 78 130 0.0 0.0 0.00 0.00 0.00 74 1016.3
20260903084614 79 130 0.0 0.0 0.00 0.00 0.00 73 1016.3
20260903083613 79 130 0.0 0.0 0.00 0.00 0.00 73 1016.3
20260903083114 79 133 3.0 4.0 0.00 0.00 0.00 73 1016.2
20260903081614 78 132 3.0 4.0 0.00 0.00 0.00 73 1016.3
20260903080612 78 130 2.0 3.0 0.00 0.00 0.00 73 1016.1
20260903075613 79 123 2.0 3.0 0.00 0.00 0.00 72 1016.2
20260903074608 79 131 1.0 3.0 0.00 0.00 0.00 71 1016.2
20260903073608 80 136 1.0 2.0 0.00 0.00 0.00 70 1016.2
20260903072609 80 140 2.0 3.0 0.00 0.00 0.00 70 1016.2
20260903071609 80 134 2.0 3.0 0.00 0.00 0.00 70 1016.2
20260903070604 80 152 2.0 4.0 0.00 0.00 0.00 69 1016.1
20260903065605 80 150 3.0 5.0 0.00 0.00 0.00 69 1016.1
20260903064604 80 184 3.0 6.0 0.00 0.00 0.00 68 1016.2
20260903063604 80 180 1.0 5.0 0.00 0.00 0.00 68 1016.1
20260903063041 80 192 0.0 0.0 0.00 0.00 0.00 69 1016.1
20260903061603 79 171 0.0 0.0 0.00 0.00 0.00 70 1015.9
20260903060603 80 147 0.0 0.0 0.00 0.00 0.00 69 1016.0
20260903055602 80 124 0.0 0.0 0.00 0.00 0.00 69 1016.0
20260903054603 80 132 0.0 0.0 0.00 0.00 0.00 68 1016.1